Theta_e
308 299 295 295 299 301 303 303 302 303 301 300 299 299 298 298 299 303 303 305 307 303 302 303 304 304 305 306 308 310 312 309 308 308 308 308 309 308 308 308 309 310 312 318 322 323 324 326 327 328 327 326 325 325 325 325 326 327 327 327 327 329 329 329 327 327 326 325 325 326 325 324 326 325 326 326 326 327 327 327 327 327 327 327 326 325
306 296 296 300 303 304 304 305 304 303 302 300 298 297 296 297 295 301 302 306 305 302 300 303 303 304 305 307 308 309 309 308 308 308 309 309 310 310 310 310 311 311 314 316 314 315 319 322 326 327 327 327 324 324 324 324 325 326 327 327 327 328 329 328 328 328 327 327 327 325 325 325 326 326 324 324 326 326 327 327 327 327 327 328 327 326
296 294 299 304 306 306 305 305 304 302 301 301 298 297 296 296 299 302 302 305 305 303 299 302 300 302 304 306 309 308 308 309 311 310 310 310 311 311 311 311 311 312 312 313 313 314 315 321 323 325 326 327 326 326 324 324 325 325 326 326 327 328 328 328 329 329 328 328 329 328 327 327 327 328 328 327 327 327 326 327 327 327 327 328 327 327
291 296 301 305 306 304 303 304 303 301 301 299 298 296 294 298 296 293 300 303 304 302 299 301 300 301 304 306 307 309 309 309 311 311 311 311 311 311 312 313 313 313 314 314 315 314 314 315 321 323 324 326 327 326 325 324 324 325 325 326 326 327 328 328 329 327 330 330 330 330 330 330 329 328 328 328 328 327 327 326 327 326 326 327 327 327
293 299 304 304 304 303 300 301 300 298 296 299 299 297 296 296 297 297 297 301 304 304 304 301 299 298 301 300 303 307 309 309 309 311 311 313 312 313 315 315 315 314 314 315 316 316 316 315 315 320 323 325 326 326 326 326 324 324 325 326 327 327 327 328 328 328 329 329 329 329 329 328 328 327 327 326 325 326 326 326 326 326 327 327 327 327
297 301 305 303 302 302 301 298 299 299 295 297 300 299 299 299 298 298 299 299 297 297 301 299 291 292 299 300 301 305 306 306 308 308 309 310 312 312 311 313 314 315 316 315 315 316 317 317 316 317 321 323 325 325 327 328 326 325 325 326 326 327 327 327 328 328 328 328 327 326 324 322 322 322 322 321 322 324 324 324 326 327 327 326 326 326
299 304 302 300 300 300 299 298 300 301 295 294 296 303 301 300 299 298 297 297 291 289 298 302 291 286 297 297 301 303 304 305 307 307 308 309 310 311 311 313 313 313 314 316 316 316 316 318 317 316 318 322 323 325 328 328 328 327 326 326 326 326 326 327 327 328 327 327 327 326 325 325 323 322 324 325 326 326 327 327 326 326 326 326 325 325
298 300 301 301 299 298 297 295 300 301 296 293 303 303 302 300 298 298 297 296 294 299 298 298 298 289 289 295 300 302 301 301 303 306 307 308 310 310 311 312 313 313 314 314 316 316 316 316 317 316 316 318 321 324 327 328 328 327 326 326 326 326 326 327 327 327 327 326 326 326 326 325 325 325 324 326 326 327 327 326 326 326 326 326 326 325
297 295 298 298 298 297 295 298 301 302 296 298 303 303 300 300 300 299 296 295 296 295 290 295 297 290 289 295 301 301 298 299 300 302 305 307 309 310 311 312 313 314 314 314 314 316 317 316 316 316 317 317 319 322 326 327 327 328 328 327 327 326 326 326 326 326 326 325 326 326 326 325 325 326 326 327 327 326 326 325 326 325 326 325 325 325
296 297 299 300 298 294 299 301 302 302 297 302 303 304 303 302 301 299 296 295 294 290 285 291 295 287 288 294 297 300 298 297 299 302 304 306 309 310 310 312 313 314 315 315 315 315 316 317 318 318 318 317 317 320 325 325 327 328 328 327 326 325 326 326 326 325 325 325 324 325 326 325 325 325 326 327 326 326 327 325 325 325 325 325 325 325
297 303 303 300 297 299 301 302 304 302 302 306 303 300 299 300 299 299 297 295 291 283 286 293 294 292 285 292 295 296 296 299 300 302 303 305 308 309 311 312 313 313 314 315 316 316 316 317 318 318 317 317 317 321 320 322 324 327 327 327 326 326 326 325 325 325 324 325 324 324 325 325 325 326 325 325 325 325 325 324 324 325 325 326 325 325
298 300 299 301 304 303 304 301 305 305 305 302 299 296 296 293 296 294 292 294 283 281 289 294 294 294 284 289 297 300 303 302 301 300 301 303 304 307 310 311 312 313 314 315 316 316 317 317 316 317 317 317 317 317 318 320 323 324 326 326 326 326 326 325 325 325 324 324 324 324 324 325 325 326 325 324 324 324 324 324 324 325 325 325 326 325
292 294 299 301 303 302 300 297 300 302 302 299 297 296 288 284 286 281 286 280 281 282 289 294 295 290 289 293 298 299 300 301 301 302 302 303 303 306 308 311 312 313 314 314 315 316 317 317 316 316 316 316 317 316 316 317 320 322 324 325 325 325 326 325 325 324 324 324 324 323 323 324 325 325 325 325 324 325 324 324 323 324 323 324 324 324
288 295 296 298 300 302 302 293 293 292 295 294 291 291 286 282 281 279 283 285 286 288 293 292 296 288 293 296 300 300 302 303 304 304 305 304 304 305 307 310 310 313 313 314 315 316 317 317 317 316 316 316 316 316 316 316 316 320 322 323 324 324 326 326 325 324 323 323 324 324 323 324 324 324 325 325 324 325 324 324 323 323 324 323 324 324
280 282 289 295 290 302 300 298 297 296 295 294 298 295 289 288 283 279 283 281 283 285 290 295 289 285 288 291 302 302 304 305 305 306 306 307 307 308 309 311 312 312 312 313 314 314 314 315 316 316 316 316 317 316 316 316 315 317 319 321 322 323 325 326 325 324 323 323 323 324 324 324 324 324 324 324 325 325 324 324 324 324 324 324 324 324
284 285 294 298 298 301 297 302 302 300 296 298 298 299 291 288 295 285 288 288 287 286 286 288 287 294 293 301 303 304 303 304 305 306 306 306 307 309 308 308 308 309 309 310 311 312 312 314 315 315 316 316 316 316 316 315 316 316 317 319 321 322 324 325 324 324 323 323 324 324 323 323 323 323 324 324 324 324 325 324 324 324 324 324 325 326
286 283 295 298 299 298 298 301 300 301 286 294 295 287 290 299 296 290 290 289 288 288 285 292 291 295 300 301 302 303 302 302 304 304 305 306 307 307 306 308 308 310 311 311 312 311 312 313 314 315 314 315 315 316 316 315 315 315 316 318 319 321 323 325 325 324 324 324 323 323 323 324 323 323 323 323 323 323 324 325 324 324 324 325 325 325
284 283 293 295 293 298 301 302 302 301 301 296 287 293 300 297 294 289 283 287 285 281 283 290 287 290 291 287 302 301 300 302 302 303 304 306 306 306 307 308 309 309 310 312 312 313 314 315 315 316 315 314 314 314 315 314 315 315 315 317 318 319 321 323 325 324 324 323 323 323 323 323 323 323 323 323 323 324 323 324 324 324 324 324 325 325
293 282 290 296 296 299 302 301 298 302 304 296 294 304 293 283 284 287 286 279 280 280 282 288 289 290 292 292 298 297 299 301 302 303 304 304 305 306 308 308 309 310 311 311 311 313 313 312 315 315 314 314 313 312 313 314 313 314 314 315 316 317 320 322 324 324 324 324 324 324 323 323 323 323 323 323 324 324 324 323 324 324 324 325 325 324
290 282 287 296 296 299 300 298 286 291 301 301 300 298 297 288 286 286 286 288 288 282 283 282 288 286 295 296 299 299 300 302 303 303 303 305 306 306 307 308 309 310 310 311 311 312 312 313 313 313 313 312 311 311 311 311 312 311 312 312 313 316 318 321 323 324 323 324 324 324 324 324 324 324 323 323 323 323 323 323 323 323 324 324 325 324
287 291 281 291 295 297 288 293 289 292 290 290 292 291 293 290 294 292 288 286 285 283 284 283 283 288 296 301 300 301 302 303 302 303 304 305 307 308 308 309 310 310 310 311 312 312 312 313 313 314 313 311 311 311 311 311 310 310 311 312 313 313 315 318 321 323 323 324 324 323 323 323 323 323 323 323 323 323 323 324 323 324 324 325 324 324
288 287 281 287 287 287 289 297 297 296 296 293 292 290 292 289 286 283 280 291 287 284 281 284 281 289 298 303 303 303 304 304 305 304 305 306 307 308 309 310 310 311 311 311 312 312 312 313 313 311 311 310 309 309 309 310 310 310 310 311 312 313 314 316 318 321 323 324 324 324 323 323 324 323 323 323 323 322 323 323 324 324 324 324 324 324
294 289 287 283 286 289 293 291 293 293 286 290 295 293 295 294 292 286 280 283 288 287 288 286 283 286 300 302 301 303 304 303 303 304 304 305 306 307 308 310 310 310 310 310 310 310 309 308 307 308 308 309 309 309 309 308 308 308 308 309 310 312 313 315 317 321 322 323 323 323 324 324 323 323 323 322 322 322 323 323 324 324 324 323 323 323
293 287 284 284 289 291 291 294 294 294 291 286 286 287 291 291 292 289 288 287 284 286 285 285 282 287 299 302 302 302 299 298 298 300 302 303 304 305 306 307 308 308 309 309 310 309 304 302 302 302 304 306 306 306 305 306 306 306 306 307 308 308 310 313 316 318 320 322 323 323 324 323 323 323 323 322 322 322 323 323 324 324 323 323 323 322
286 287 285 282 281 283 285 288 290 293 293 289 288 288 289 290 290 286 286 287 283 284 286 284 279 286 296 301 302 302 300 299 299 299 300 302 304 305 305 305 306 306 306 306 306 307 305 303 303 305 306 305 305 306 305 305 305 305 305 305 306 307 309 312 315 317 319 320 321 322 323 323 323 323 323 322 322 322 323 323 323 323 322 322 322 322
289 287 285 279 276 274 274 275 278 282 284 289 291 291 290 289 287 286 281 284 279 285 287 284 284 291 294 295 297 299 300 300 299 299 298 299 299 300 302 303 303 303 304 304 305 306 305 305 305 305 305 304 304 304 304 303 304 304 304 305 305 305 307 309 313 315 317 319 320 321 322 322 323 322 322 322 322 322 323 323 323 322 322 322 322 321
288 288 287 285 282 280 282 282 284 288 289 285 287 289 290 291 291 290 288 283 279 283 282 283 285 285 288 291 293 295 298 299 300 301 301 302 303 304 303 303 303 303 303 303 303 304 303 302 303 305 305 304 303 302 302 302 302 303 303 303 304 304 305 307 310 313 315 317 319 320 321 321 322 322 322 322 322 322 322 322 322 322 321 321 321 321
287 285 286 286 286 287 287 282 286 288 285 287 287 287 290 289 289 287 284 281 286 283 277 285 287 284 286 290 292 294 297 299 301 301 302 303 304 304 303 303 300 303 304 305 305 305 304 303 304 303 304 304 302 302 301 301 301 301 302 302 303 303 303 305 306 308 312 314 316 318 319 320 321 322 322 322 322 322 322 322 321 321 321 319 320 320
287 284 286 286 285 288 289 286 285 286 286 287 286 288 287 289 288 284 284 287 286 282 279 286 287 285 288 291 294 295 299 299 300 301 302 303 303 302 302 302 302 302 303 304 306 308 307 303 303 304 304 304 302 301 300 301 300 300 299 300 301 302 302 303 304 305 308 311 313 315 317 319 320 321 321 320 321 321 321 321 321 321 320 319 318 319
290 286 287 287 285 286 288 288 288 286 287 287 286 287 288 288 287 287 286 287 287 285 286 287 287 288 291 292 294 296 300 301 301 302 302 301 301 301 301 300 301 302 302 303 305 305 307 302 304 303 304 302 302 301 301 301 301 300 300 300 300 300 301 302 302 304 306 308 310 313 316 317 318 318 319 319 319 319 319 319 319 318 317 316 316 317
289 285 288 286 284 283 287 288 288 288 287 285 287 288 288 289 289 289 289 289 289 287 288 288 287 288 294 297 297 299 300 301 300 300 300 301 301 300 299 300 300 301 303 303 304 304 304 305 302 302 301 302 302 302 302 301 301 301 300 300 301 301 301 301 301 303 305 307 309 312 313 315 316 316 315 316 317 317 316 316 315 314 314 314 314 315
288 285 289 286 282 282 285 285 286 286 286 285 285 287 287 287 284 287 287 290 288 286 288 287 286 286 293 297 298 299 299 299 298 298 299 299 300 300 300 301 301 302 302 303 303 304 304 304 303 301 302 302 303 302 302 302 302 301 300 301 301 301 301 300 300 301 303 305 308 310 311 312 312 312 312 313 313 314 314 313 312 311 311 311 309 310
287 286 284 284 281 281 285 286 285 283 282 280 281 285 288 289 289 290 291 292 291 291 287 285 286 292 295 297 296 297 298 298 298 297 299 300 301 301 300 300 301 302 302 303 303 303 303 302 302 301 301 301 302 302 303 304 302 302 303 303 303 301 299 299 299 300 302 304 305 307 308 308 308 308 308 309 310 311 310 309 308 308 308 309 308 306
287 286 285 287 280 281 282 284 284 281 274 277 289 292 291 288 288 287 287 289 292 293 290 292 293 295 296 296 295 295 296 296 297 300 301 300 299 300 301 301 301 302 302 302 302 301 300 299 299 300 301 302 303 303 303 302 301 303 302 301 300 298 298 298 298 299 300 301 303 304 305 305 305 305 305 305 305 304 304 304 306 306 306 304 301 303
285 286 285 286 282 280 283 283 279 273 276 288 292 295 293 292 291 290 290 292 292 293 293 292 293 294 295 296 296 296 297 298 299 300 300 301 302 302 301 302 302 302 303 304 304 302 300 300 300 301 303 307 307 306 303 301 301 301 299 299 298 298 298 298 298 298 299 299 301 302 302 303 303 303 303 301 300 299 300 302 302 301 300 300 300 301
286 285 285 283 284 283 280 279 272 275 286 290 291 290 293 293 292 291 289 291 291 292 293 292 293 294 295 296 296 297 296 298 300 300 301 300 298 297 297 299 302 303 303 305 305 304 302 302 303 307 308 308 307 306 303 302 302 300 300 298 298 298 298 298 298 298 298 298 299 300 300 301 302 302 301 298 297 298 298 299 300 300 298 297 298 298
288 287 286 281 284 277 279 278 278 285 284 286 287 289 290 289 289 288 284 287 289 290 292 292 293 293 293 293 293 294 296 297 297 298 295 295 296 296 296 297 298 299 301 302 302 301 302 304 307 307 306 305 305 304 303 303 301 299 298 297 297 297 297 297 297 298 298 298 299 299 299 299 300 299 299 297 296 297 298 298 298 297 296 297 297 298
290 285 285 282 280 283 278 277 278 277 274 281 290 295 296 297 296 295 292 286 291 291 292 292 291 291 291 292 292 295 298 297 291 290 292 293 294 294 295 296 296 297 297 299 301 303 304 304 302 302 301 300 300 301 301 300 299 297 297 297 297 295 295 295 297 298 298 298 299 298 298 298 298 298 297 297 296 296 297 297 297 296 294 296 296 296
286 287 285 283 280 279 278 276 276 274 278 288 290 292 292 292 295 294 288 283 290 290 292 292 290 290 291 290 290 292 291 286 285 288 292 292 293 294 293 294 295 296 296 297 297 297 297 298 298 297 298 298 298 299 299 298 297 296 296 297 297 296 296 296 297 298 298 298 298 298 298 297 297 297 297 296 296 296 295 295 295 295 293 295 296 296
283 284 283 280 278 279 278 276 275 278 278 285 289 291 292 292 295 291 278 280 289 291 292 291 290 289 290 290 291 290 287 283 285 289 292 292 293 294 293 293 293 294 295 296 297 296 295 296 296 295 296 296 296 297 296 296 296 294 295 297 297 296 295 297 299 299 298 298 297 297 297 297 296 295 295 295 293 294 295 295 295 294 293 294 296 296
280 280 282 278 279 279 278 277 279 280 286 287 288 291 292 294 292 281 277 286 288 291 291 291 288 289 290 289 290 287 289 290 291 292 292 293 292 292 293 294 294 295 295 295 295 292 295 295 295 294 294 295 295 294 294 294 294 294 295 295 295 294 296 298 298 298 297 297 296 296 295 296 295 294 292 292 293 293 293 294 295 294 293 293 294 294
279 280 280 281 278 277 278 276 277 280 287 290 289 292 293 290 280 280 288 291 291 290 292 292 289 289 288 289 289 289 290 291 291 291 291 291 291 292 292 292 292 293 295 295 293 294 294 294 294 293 293 293 294 293 293 293 292 293 294 294 293 295 298 298 297 296 296 296 296 295 295 292 292 291 291 290 291 291 291 292 293 293 291 293 293 292
279 277 276 276 280 279 278 276 275 271 283 288 291 289 292 285 287 290 289 291 293 292 292 291 291 289 289 288 290 289 290 290 290 290 290 290 290 290 291 290 290 291 292 293 293 294 292 293 293 292 291 291 292 292 292 291 289 291 292 292 294 296 296 296 295 295 296 295 294 291 290 290 290 289 290 290 290 290 290 291 290 290 290 291 291 291
285 278 278 279 283 275 275 273 274 282 288 290 290 285 291 293 294 293 293 291 292 292 291 290 289 289 289 289 288 289 289 288 289 289 289 290 290 290 290 290 290 290 291 292 293 293 292 292 293 291 290 291 291 290 290 290 289 289 289 291 294 294 294 295 294 294 293 291 291 290 289 289 289 289 289 289 289 289 289 290 289 289 290 291 291 291
286 281 284 279 284 280 278 281 286 287 290 291 292 293 295 295 295 295 295 294 292 292 292 290 289 290 290 290 288 288 288 288 288 288 288 288 288 289 289 289 289 288 289 291 292 292 291 292 291 291 290 291 291 291 289 289 288 287 287 290 291 290 290 291 290 290 289 289 289 289 289 289 289 289 289 289 289 289 289 289 288 289 289 289 290 291
287 287 285 285 284 287 288 288 290 289 288 289 290 292 294 295 292 293 294 293 293 294 293 291 290 290 291 291 291 289 288 288 287 287 287 288 288 288 288 288 288 288 288 289 291 291 290 290 290 289 289 290 290 290 289 288 287 286 288 289 288 288 288 287 287 287 287 288 289 288 288 288 288 288 288 288 289 289 290 289 289 289 290 290 290 290
285 285 285 282 285 282 278 288 286 287 289 290 290 291 291 291 293 293 293 294 294 294 293 293 292 291 291 291 290 290 289 289 288 288 287 288 288 288 288 288 287 288 288 288 289 289 290 289 289 289 288 288 290 289 288 287 287 287 287 286 286 286 285 285 286 287 287 288 289 288 288 288 289 289 288 287 289 289 290 291 290 289 289 290 290 290
282 288 284 284 284 282 283 286 287 288 289 289 290 289 289 291 291 291 292 293 293 294 294 293 292 291 292 290 291 290 290 290 288 288 288 288 288 288 287 287 287 287 287 288 289 288 288 288 288 288 288 288 290 289 287 286 286 286 285 284 283 283 284 284 285 286 287 287 288 289 288 289 288 288 289 288 288 288 289 289 289 289 289 289 289 289
285 287 281 284 283 285 287 288 288 287 287 289 288 289 290 292 292 291 289 290 291 291 291 291 291 292 292 291 292 291 289 289 289 289 288 289 288 288 287 286 286 286 287 288 288 288 288 288 288 288 288 289 289 288 286 285 286 286 284 282 282 282 283 284 285 286 286 287 288 288 288 288 288 289 289 289 288 288 288 289 289 289 290 290 291 291
284 282 285 283 281 281 282 285 288 283 284 287 288 289 289 289 291 290 288 287 288 288 289 289 289 289 289 290 289 289 289 290 289 289 288 288 288 288 287 286 285 286 287 288 289 288 288 288 288 288 288 288 289 287 285 285 285 285 283 282 282 283 283 284 285 286 287 287 288 288 288 288 288 288 288 288 288 288 288 288 288 289 290 290 288 288
283 285 284 282 281 282 286 286 289 288 287 288 289 290 288 289 289 287 286 286 287 288 288 288 287 287 287 287 288 288 288 289 289 288 287 287 288 288 288 286 285 285 286 287 287 288 288 288 288 287 287 288 287 286 285 284 283 283 282 281 282 282 283 283 284 286 287 287 288 288 287 288 287 287 288 288 288 288 288 288 289 287 287 288 288 288
Wind_Speed
8 10 10 13 14 19 21 23 25 21 7 8 7 11 14 13 11 5 11 6 8 10 17 17 19 19 18 16 16 18 17 12 13 14 13 12 11 11 11 12 12 12 14 9 5 8 12 13 11 11 10 11 13 13 14 15 16 16 16 15 17 15 14 12 13 14 14 15 14 14 15 16 14 14 14 13 14 14 14 14 14 14 13 13 13 13
9 14 14 15 19 20 21 21 21 21 20 14 11 9 12 14 15 13 10 8 6 10 15 15 18 21 19 18 15 16 19 21 14 15 17 17 16 13 13 13 13 13 11 8 8 10 10 10 12 10 10 12 14 15 16 17 18 17 18 17 16 13 14 16 15 14 15 15 14 15 16 15 14 14 14 15 14 14 13 14 14 14 14 14 13 12
14 17 17 21 18 15 17 20 21 22 20 18 16 15 13 13 10 1 5 9 6 7 16 15 18 17 16 15 14 14 18 17 15 14 17 17 17 15 14 14 14 11 12 12 12 12 11 11 11 10 11 12 16 14 16 18 16 16 16 16 15 14 15 16 16 14 15 14 14 14 12 14 12 13 14 13 13 13 14 15 15 15 14 14 14 14
15 14 23 19 14 17 17 18 17 18 18 17 17 16 18 12 9 11 9 8 8 10 11 11 15 17 17 19 19 18 18 19 18 17 18 17 18 18 18 15 15 16 15 16 14 14 14 12 10 11 12 14 12 12 14 15 17 15 15 15 16 16 16 15 17 17 16 14 14 14 11 11 10 9 10 13 13 13 15 16 15 15 14 14 14 14
17 13 20 17 17 19 21 17 14 14 16 20 21 18 18 18 11 13 6 9 7 12 11 10 13 17 16 17 15 16 17 18 20 19 20 20 18 17 16 16 15 18 17 17 17 16 15 13 13 14 14 11 11 14 15 15 15 13 18 18 18 16 16 16 17 18 15 12 12 12 13 12 11 12 11 11 14 15 15 14 15 17 15 15 14 15
17 16 6 17 19 20 18 15 18 16 16 16 21 22 21 17 17 7 4 4 6 11 12 12 11 17 13 18 21 15 12 20 20 21 22 22 20 17 19 18 17 17 16 18 18 18 17 15 14 13 13 13 14 15 16 15 16 16 16 17 17 15 14 15 17 16 14 13 13 13 14 14 14 15 14 17 17 15 16 17 15 15 15 14 13 14
7 9 17 15 18 21 21 19 18 15 14 14 15 22 23 20 16 16 11 7 13 17 2 6 14 19 11 13 13 13 16 20 16 20 23 21 20 17 16 16 15 16 16 17 18 18 17 15 15 14 13 14 16 17 15 13 15 17 16 16 18 16 15 14 15 17 15 15 13 16 16 14 14 14 14 13 11 11 11 10 13 14 14 14 15 16
6 11 12 17 17 17 19 19 18 19 15 14 1 8 14 21 23 19 14 13 14 3 3 6 10 14 20 14 16 14 16 18 18 20 21 18 18 18 16 16 17 17 18 17 18 19 19 18 16 17 16 15 16 16 11 12 13 17 18 17 17 15 15 14 14 17 16 16 15 16 16 14 14 15 14 13 13 11 9 11 12 12 14 15 16 15
18 13 14 16 16 14 16 15 14 16 15 5 8 13 15 16 18 14 10 13 11 9 13 9 4 10 19 17 11 17 18 23 24 22 20 17 16 16 16 16 18 19 19 19 18 18 18 16 17 17 16 15 15 11 11 14 15 15 15 15 16 16 16 15 17 17 18 17 16 16 15 15 14 14 13 10 10 11 12 12 11 13 13 14 16 16
10 14 16 15 13 13 12 14 12 16 17 10 8 9 11 11 10 13 13 15 9 6 15 14 10 13 20 21 11 15 20 22 20 18 19 18 16 16 16 18 19 17 16 17 20 20 18 16 16 17 18 15 12 14 13 14 13 13 13 15 17 19 15 15 17 18 19 20 17 16 17 19 16 13 12 11 11 12 12 13 13 13 12 12 13 15
8 7 4 10 14 14 12 12 15 18 17 8 11 10 11 10 11 11 11 10 9 18 16 15 20 17 18 22 13 15 17 16 9 10 13 14 16 17 17 16 15 15 15 14 15 18 19 16 17 15 15 17 16 10 13 13 14 14 15 16 18 20 15 14 17 19 21 19 18 17 19 21 20 18 15 13 13 12 12 13 14 13 12 11 12 12
13 7 5 2 4 9 11 13 13 15 12 11 7 10 2 5 6 9 9 11 14 16 12 19 23 22 19 21 10 15 17 14 16 20 16 14 14 13 14 14 16 17 15 14 14 15 16 17 15 15 16 17 17 13 11 11 12 13 14 14 17 17 17 15 16 17 19 17 19 20 20 20 21 18 14 17 16 16 16 15 13 12 11 12 12 12
16 14 7 8 4 5 12 13 8 4 6 13 14 12 12 5 7 13 8 16 19 13 12 17 18 17 27 27 16 3 2 3 5 8 9 10 12 10 10 11 11 13 15 15 14 13 12 12 12 12 15 14 12 10 13 13 11 12 12 15 16 18 18 17 17 18 19 18 18 20 21 21 18 17 17 16 16 14 13 13 13 12 13 12 12 13
9 12 14 11 7 9 11 15 9 10 12 12 15 13 14 14 11 10 12 6 5 9 10 10 15 17 10 21 31 29 28 19 16 9 6 9 10 11 11 11 12 12 14 14 13 12 12 11 10 12 13 14 12 14 13 14 13 12 13 16 17 20 18 17 16 18 18 20 19 19 19 18 17 17 18 16 15 15 13 12 13 14 13 12 14 14
10 11 16 14 11 13 17 16 14 7 14 17 11 15 12 9 11 14 12 15 11 6 8 9 8 6 15 19 5 9 12 18 24 24 21 17 15 13 11 8 9 9 10 10 10 12 14 14 13 11 12 11 11 12 13 12 13 13 14 15 18 19 18 18 18 17 19 18 20 19 18 17 15 16 16 16 14 14 14 13 13 13 12 12 12 13
17 10 3 23 8 15 16 15 15 10 7 11 10 6 12 18 6 19 7 11 12 4 5 12 11 7 14 20 11 2 3 3 9 15 17 20 16 10 8 8 10 10 10 9 11 13 15 16 14 11 11 11 12 13 10 12 10 11 14 15 18 19 18 17 17 17 18 20 18 19 19 19 18 14 13 12 12 14 14 14 14 14 13 12 11 10
8 15 6 11 17 16 16 15 15 12 11 7 10 16 13 6 12 9 12 1 5 5 15 5 8 11 7 16 16 17 14 6 7 8 10 12 14 15 16 14 13 11 10 9 10 11 14 13 12 11 12 10 10 9 10 12 12 14 13 14 17 18 16 16 17 19 18 18 17 18 19 18 17 17 18 17 18 17 14 13 13 13 13 12 11 10
9 8 11 11 14 17 16 18 16 18 6 4 14 8 2 4 4 5 6 5 11 9 4 11 15 10 11 13 9 20 19 16 14 12 11 13 13 15 14 14 13 14 15 15 14 14 13 13 12 10 8 11 11 11 9 10 9 9 11 13 15 16 17 17 18 19 17 17 18 17 18 20 19 18 18 17 16 14 13 13 12 12 12 13 12 10
4 8 6 10 14 13 11 12 14 18 18 15 8 11 12 7 11 4 3 10 8 10 4 9 14 15 16 16 1 7 17 18 12 13 14 11 10 11 12 13 14 15 14 13 14 11 11 14 11 11 9 7 7 7 8 7 7 8 11 13 15 18 18 19 15 15 15 16 14 14 17 19 18 16 16 16 16 13 14 15 14 14 15 12 12 11
1 8 4 2 10 7 9 10 14 10 15 7 5 8 1 2 4 8 7 2 1 9 6 9 11 12 14 14 20 14 12 7 9 12 15 14 13 11 10 11 12 12 13 12 9 9 10 11 11 9 8 8 9 8 7 9 8 12 13 14 16 16 15 15 16 15 17 16 15 14 14 15 15 16 16 16 15 14 14 15 15 15 14 14 11 11
3 1 9 2 1 6 8 8 13 14 15 10 8 10 6 6 1 1 4 4 5 5 10 5 10 5 11 13 19 17 16 9 7 9 10 12 15 15 15 13 12 14 14 14 11 8 9 10 10 7 5 5 6 8 8 9 12 13 12 14 15 17 18 18 17 15 16 14 16 16 17 16 16 17 16 16 15 15 15 14 13 14 13 11 11 12
5 7 9 4 3 5 4 6 10 16 17 14 13 13 13 10 11 14 16 4 6 4 2 2 7 1 1 7 11 12 13 14 12 13 10 10 12 12 11 12 12 10 12 13 11 10 9 8 6 5 5 6 7 8 10 11 10 11 13 14 14 15 15 16 15 15 15 15 14 16 16 18 16 15 15 16 16 16 16 15 14 13 12 13 12 12
5 3 7 10 5 8 5 2 3 6 4 3 6 14 15 14 13 12 16 13 7 9 6 7 6 5 3 3 2 7 8 5 5 3 7 8 11 11 10 10 10 10 13 11 11 10 7 5 5 6 7 8 9 9 10 9 8 9 10 10 11 12 15 14 14 13 13 13 14 16 15 15 15 14 16 17 16 17 16 15 14 12 12 12 11 11
5 6 8 10 5 1 1 2 3 3 4 3 1 2 2 11 11 10 10 4 3 1 6 6 10 6 9 9 9 6 4 3 2 2 3 5 7 8 10 10 11 11 11 11 9 7 3 4 6 8 9 10 9 8 9 9 8 9 10 12 11 14 17 14 13 12 12 13 14 15 15 15 14 15 15 16 15 16 16 14 13 11 12 12 11 11
6 5 9 10 6 5 6 2 5 2 4 5 5 6 8 4 2 5 2 1 6 7 11 9 13 3 4 1 6 6 3 3 2 1 3 5 5 7 9 10 9 11 11 12 13 10 6 6 9 10 8 8 9 8 7 8 9 9 10 9 11 13 12 12 10 11 12 13 15 14 14 15 15 15 15 15 13 16 14 14 11 10 12 12 12 12
8 6 10 13 13 11 12 13 13 12 13 8 6 8 10 14 14 3 7 3 7 3 13 11 8 4 14 18 14 9 3 2 1 1 2 3 5 7 7 8 10 9 10 12 12 11 9 7 8 10 11 8 8 8 8 8 8 9 10 11 10 10 9 10 9 11 11 12 13 14 15 15 14 15 15 15 14 15 14 13 13 12 11 13 15 14
5 5 9 12 13 14 13 1 4 3 4 7 7 14 12 12 12 12 5 7 12 5 12 12 7 10 19 23 21 18 5 8 7 4 7 8 8 6 5 5 8 9 11 13 13 10 6 7 11 11 9 8 8 7 8 8 9 8 9 10 9 9 9 8 8 9 10 11 12 12 13 13 14 14 14 14 14 12 12 12 13 13 13 13 15 16
2 8 12 15 17 15 5 4 1 2 2 0 2 6 10 9 11 12 11 12 4 8 13 7 13 7 15 23 26 21 12 13 8 5 8 10 10 11 11 10 12 13 13 10 10 12 11 8 9 10 11 10 8 7 8 8 9 9 8 9 7 7 7 6 6 8 9 10 11 12 13 13 13 13 13 11 11 12 12 12 14 17 15 11 14 17
5 11 10 10 16 17 5 5 3 1 1 1 1 2 2 6 6 10 11 14 11 9 13 13 8 11 14 19 24 21 6 10 11 13 15 14 8 9 12 14 14 14 15 16 16 17 11 7 6 9 11 12 10 10 9 7 7 6 8 8 8 7 8 7 8 9 9 10 12 13 13 10 8 7 8 9 10 11 14 17 15 12 12 10 12 14
5 11 5 11 16 13 9 7 4 6 5 4 6 7 8 6 8 11 12 13 15 13 12 17 18 18 15 19 24 23 12 12 13 12 10 11 12 10 10 15 16 16 15 15 16 16 15 5 7 10 10 10 9 9 9 7 7 7 7 8 8 8 7 7 9 10 10 11 13 12 10 9 7 9 10 13 14 16 16 15 14 12 13 13 13 14
7 6 11 4 7 12 10 9 9 8 8 11 11 11 12 12 13 14 14 14 12 15 15 17 18 17 12 18 25 24 14 6 10 13 14 14 10 10 12 14 15 14 15 15 15 14 15 11 8 9 8 9 9 8 7 7 7 7 8 8 6 7 7 8 8 9 10 11 11 9 7 8 8 7 11 15 13 12 12 12 11 11 12 12 12 13
7 4 3 5 9 11 4 7 9 5 6 10 12 13 16 15 15 13 14 13 13 12 12 14 15 15 17 22 22 21 15 12 14 14 14 12 10 8 9 11 12 13 15 15 14 13 12 13 10 7 9 9 9 8 6 6 6 6 9 6 6 5 4 6 8 9 10 10 8 8 8 7 6 10 12 11 13 12 12 11 10 11 12 12 12 12
8 7 6 8 9 8 4 8 8 5 3 9 14 19 19 16 13 11 12 11 14 15 13 12 14 15 18 13 16 24 18 11 7 4 5 6 7 8 11 14 14 13 15 14 13 12 12 12 11 7 8 8 7 8 7 6 6 9 7 5 3 1 4 6 6 7 8 8 8 8 7 6 9 11 10 12 10 9 8 9 10 11 12 14 13 10
8 10 9 6 8 3 3 6 5 4 8 12 5 6 12 16 15 16 15 18 18 16 14 14 14 13 14 16 19 23 18 8 3 3 4 8 11 13 14 15 15 14 13 13 11 12 12 9 7 6 7 9 10 8 8 7 8 8 5 4 2 3 4 5 6 7 7 6 7 7 7 7 9 11 11 9 8 7 7 9 12 11 9 7 6 10
10 9 9 4 7 4 5 3 3 8 12 3 6 5 10 14 16 18 19 17 11 8 12 16 17 19 20 17 17 18 17 16 11 4 8 10 13 13 15 16 16 16 16 16 13 10 9 8 7 8 9 8 6 6 6 8 7 6 4 3 4 4 5 6 6 7 7 7 7 7 8 9 9 12 10 8 7 7 9 10 9 8 8 7 9 10
10 11 5 2 6 1 1 6 4 9 2 4 3 1 2 4 8 8 12 5 1 5 11 16 18 18 17 15 14 13 15 15 11 5 6 10 14 16 16 15 16 15 16 14 13 11 8 7 7 8 11 11 9 9 6 9 7 5 4 1 5 5 5 6 6 7 6 7 7 8 8 8 8 8 8 6 7 8 10 10 10 11 8 7 7 7
8 7 8 6 4 7 5 9 12 10 16 18 8 4 8 8 8 10 7 5 1 4 4 3 4 5 7 9 10 12 10 5 2 4 14 16 16 15 15 16 15 16 15 14 12 13 10 9 10 11 11 11 10 10 10 9 8 6 5 3 4 4 5 6 7 8 8 8 7 7 7 7 7 7 8 7 8 10 11 11 11 8 4 7 8 9
7 10 4 6 4 7 3 6 6 7 12 7 2 1 2 3 4 6 3 5 1 2 2 2 3 3 4 7 10 11 1 5 7 8 13 18 17 16 15 13 14 15 14 14 13 11 11 11 11 11 10 12 12 10 9 9 9 6 6 6 4 4 5 6 9 8 7 8 7 6 6 6 7 8 9 9 12 12 10 8 6 7 6 8 8 9
4 3 3 10 3 4 5 6 6 8 8 3 2 4 5 3 8 7 2 6 4 3 1 2 4 4 6 7 9 9 8 7 6 7 12 16 16 15 14 15 14 14 13 13 13 13 13 12 11 11 9 8 10 11 10 10 8 6 7 6 5 3 5 8 10 8 8 7 5 6 6 7 7 7 8 10 11 10 10 10 10 6 6 7 7 8
5 5 5 4 6 4 6 6 9 5 6 1 1 2 0 1 5 4 3 4 8 4 3 4 6 5 5 6 5 10 9 6 5 7 11 13 12 11 10 13 14 15 14 13 11 10 10 10 10 11 12 12 12 13 12 10 7 7 8 8 4 5 7 10 9 4 4 5 5 5 6 6 8 9 9 9 6 6 9 6 7 8 9 8 7 7
6 4 9 11 7 7 8 8 6 6 5 5 8 3 5 3 1 4 8 3 4 3 4 6 5 4 5 7 7 6 5 3 4 7 9 11 12 13 12 10 9 9 12 13 12 11 10 10 7 8 10 10 12 12 11 9 7 7 7 7 6 8 10 7 4 5 4 4 4 5 6 6 7 9 5 5 5 5 5 7 8 8 8 7 7 6
5 5 3 6 10 11 10 9 10 9 7 4 8 5 6 6 6 9 1 4 8 6 5 5 7 4 4 6 4 3 3 5 5 5 7 9 10 11 11 13 14 12 6 5 7 9 10 10 10 9 9 8 9 9 9 9 9 8 7 6 7 10 9 4 4 4 5 5 5 5 6 5 5 5 5 4 5 5 7 6 7 8 7 6 7 8
11 9 9 9 6 3 5 8 4 9 2 3 6 4 3 6 2 3 6 2 1 5 6 4 4 2 3 5 2 1 3 5 8 8 8 8 10 12 13 15 15 14 15 16 15 12 10 11 10 9 9 9 8 7 8 7 8 8 8 8 10 8 8 6 5 5 5 6 5 5 5 4 6 6 5 5 6 7 7 5 6 6 7 9 9 9
10 6 6 8 9 6 9 9 9 1 4 1 4 4 7 4 4 5 5 6 3 2 4 4 3 2 2 5 4 4 4 6 8 9 10 10 9 10 11 12 13 14 14 12 9 10 10 11 9 10 10 8 7 7 6 8 8 8 9 11 10 10 9 9 7 6 5 4 5 5 5 5 5 5 5 6 6 6 8 8 7 6 7 7 8 9
12 8 3 7 9 8 8 10 3 1 2 2 1 2 3 4 4 5 3 3 6 3 2 3 5 6 6 7 6 4 1 3 6 6 7 10 10 10 12 13 11 12 14 13 13 13 9 8 12 11 13 10 10 5 3 4 8 10 9 10 10 11 12 10 8 6 6 6 6 5 5 4 5 5 6 6 7 7 6 7 8 9 7 6 7 7
2 4 2 3 7 9 9 5 3 1 4 1 1 1 2 3 3 3 5 4 3 3 5 4 5 6 6 5 4 4 5 6 5 5 6 6 7 9 8 10 13 12 13 13 14 14 10 9 9 9 13 15 10 9 6 5 4 11 11 10 9 9 8 9 10 9 9 7 6 6 4 5 5 5 6 7 7 7 6 7 6 7 6 6 7 6
2 3 4 4 2 6 7 8 13 12 9 6 4 1 2 1 1 3 4 3 5 5 4 4 5 7 8 7 6 5 6 7 7 7 7 6 7 7 8 10 12 10 11 14 15 11 13 10 12 13 12 14 11 10 8 8 6 5 8 9 8 8 8 9 9 10 9 8 6 4 4 5 3 4 5 6 5 6 6 7 6 5 6 8 8 7
3 6 6 7 5 9 6 3 2 2 3 2 4 2 3 4 4 4 1 3 3 5 5 6 5 5 3 5 7 7 8 7 7 9 7 7 7 7 7 7 10 12 13 11 12 10 11 10 10 12 11 12 12 10 10 10 8 5 6 7 9 8 7 7 7 7 7 8 5 3 2 3 6 5 3 5 5 5 4 6 6 8 10 9 9 9
2 10 5 6 8 11 10 10 6 1 5 7 6 7 5 4 5 5 2 2 3 4 6 5 6 7 6 8 7 6 7 9 9 9 9 8 8 8 8 7 8 10 12 14 12 10 11 12 13 10 8 11 9 8 10 11 11 8 5 7 8 9 10 9 8 6 6 6 4 4 2 3 2 3 2 2 4 4 3 5 6 6 6 5 5 8
4 8 4 4 6 8 10 4 8 5 6 2 5 5 4 3 4 5 3 2 4 6 6 7 8 8 7 7 7 7 7 8 10 9 8 8 9 10 9 9 9 10 12 13 10 11 12 12 11 11 11 10 6 6 8 10 11 9 6 7 6 8 9 9 8 6 5 3 3 3 2 2 2 3 3 4 4 4 4 7 9 7 6 5 7 10
9 7 8 8 8 8 4 8 2 3 1 2 2 3 7 5 6 5 5 7 7 8 7 7 8 7 6 8 8 7 8 8 10 10 9 8 10 10 9 9 10 11 12 11 10 12 13 13 11 9 10 11 7 7 7 9 11 9 5 7 7 8 9 10 8 6 4 3 3 3 2 2 2 3 3 2 2 3 4 5 6 10 11 9 6 8
Wind_Direction
154 186 193 205 207 206 208 214 223 222 251 259 246 238 240 242 251 211 208 188 194 242 244 239 243 247 248 236 230 244 250 232 239 247 250 254 253 246 240 240 240 239 244 241 185 219 231 229 219 214 210 212 210 211 209 206 206 203 201 197 203 202 201 198 206 210 208 210 215 219 220 221 219 220 222 225 225 225 226 224 222 220 221 220 214 210
182 213 217 215 218 213 213 216 224 232 236 248 257 255 253 243 248 237 222 168 192 217 255 249 252 250 250 249 237 236 249 249 232 241 247 250 250 248 240 241 243 244 249 249 246 239 235 230 221 212 211 208 208 211 206 208 208 206 203 202 204 195 196 202 204 205 209 208 208 208 214 217 219 219 217 223 221 223 227 226 222 221 222 219 215 207
197 214 218 220 219 222 222 220 222 227 237 241 242 246 255 250 249 234 218 211 188 217 255 262 266 260 257 250 237 228 244 252 249 236 248 248 249 249 245 237 240 242 246 247 239 239 236 226 218 214 219 217 215 210 206 212 209 208 206 209 202 199 196 199 201 202 207 206 207 204 207 208 217 221 226 227 227 223 224 225 223 222 222 219 218 213
208 220 226 223 213 218 222 220 217 223 234 237 237 236 240 245 225 247 214 194 203 213 255 257 260 267 263 254 244 228 228 248 246 236 241 243 245 246 248 244 239 241 246 249 240 235 230 228 214 212 220 221 213 212 214 210 209 207 209 209 205 203 199 198 199 202 207 204 205 210 212 207 212 216 219 231 231 227 226 227 222 222 220 220 220 215
208 207 218 217 214 215 220 214 212 213 224 229 233 236 238 236 233 247 254 192 217 237 259 284 271 269 254 251 242 227 223 239 243 239 236 241 235 238 246 250 241 248 248 250 249 244 238 222 218 214 217 212 208 212 214 207 203 204 206 205 205 207 204 203 202 201 201 198 200 208 221 228 228 234 230 228 230 226 225 225 222 223 219 219 218 216
225 223 191 210 215 220 221 216 209 209 228 234 231 231 237 242 243 229 237 204 248 249 226 220 274 261 251 245 242 237 212 224 232 237 236 233 235 223 232 239 243 241 241 246 247 243 237 227 224 217 214 208 214 219 218 209 204 203 207 204 203 206 210 210 206 200 194 199 198 198 208 212 216 224 221 223 222 216 219 220 224 224 220 216 215 216
233 240 225 216 212 219 219 225 217 199 228 233 227 218 230 236 244 247 238 217 246 252 255 180 241 274 268 252 234 231 218 229 227 227 236 233 235 231 229 232 237 238 242 244 244 245 243 235 223 222 210 210 217 222 218 208 209 208 210 204 201 202 206 206 203 196 194 203 204 204 206 207 206 212 219 220 218 216 216 213 219 223 219 211 214 216
157 231 226 221 219 216 218 223 217 209 221 242 183 196 198 224 232 236 242 243 255 309 71 200 240 271 284 245 247 233 229 243 239 228 231 228 232 237 237 233 237 240 240 244 245 239 236 239 234 230 222 212 216 222 210 206 210 213 213 205 203 204 205 202 196 193 195 200 203 205 208 209 213 215 220 209 210 210 210 209 213 220 221 217 215 217
205 211 218 222 220 216 221 225 219 206 220 239 127 148 198 211 225 226 223 235 246 258 250 228 160 255 259 267 233 213 234 242 242 239 237 226 219 230 234 232 232 235 235 236 244 246 239 231 232 233 234 222 219 218 204 205 209 214 217 212 209 209 206 202 192 191 196 201 203 202 205 211 218 220 223 213 207 204 204 212 211 215 217 218 219 219
217 216 216 217 227 227 222 218 208 188 222 216 134 191 217 214 196 199 221 234 227 209 239 227 201 246 265 266 246 215 222 240 241 240 242 235 212 216 227 228 230 235 239 236 241 248 248 236 232 230 232 233 217 211 207 211 209 211 210 211 212 214 211 203 195 193 197 199 201 206 209 211 214 211 215 208 206 202 199 206 208 209 210 212 215 217
234 53 355 208 221 227 225 223 212 207 216 125 156 227 235 220 220 222 224 223 243 239 227 216 219 223 264 266 231 221 224 231 244 244 241 241 229 218 223 228 225 231 239 239 237 243 248 243 238 238 227 228 228 206 207 212 211 209 206 209 211 215 212 205 202 198 199 198 199 206 210 211 214 208 203 200 207 202 199 204 204 203 207 206 207 210
252 246 219 261 294 227 226 227 215 216 200 159 185 208 199 236 206 221 216 204 230 240 214 214 218 217 241 268 252 237 248 235 230 244 244 243 235 218 221 226 230 234 239 243 243 242 243 244 236 232 236 234 231 221 203 211 211 212 213 212 216 218 213 209 207 203 203 200 203 208 211 214 217 210 203 205 209 203 203 202 201 202 202 204 204 201
236 229 232 253 30 236 198 229 202 172 208 197 201 198 203 200 167 219 162 216 215 222 205 215 207 225 233 250 252 21 36 7 264 276 267 261 263 241 227 233 230 232 237 241 244 243 244 242 239 234 240 240 234 216 211 215 212 212 214 213 215 221 214 213 207 205 204 201 204 207 210 215 216 212 212 213 215 208 205 203 201 197 201 200 201 204
236 235 225 236 251 211 222 208 183 208 189 198 201 190 202 215 209 225 207 232 245 231 220 223 182 229 242 260 255 250 252 263 273 268 263 266 266 261 239 228 230 228 232 238 241 245 248 247 240 237 238 237 233 224 218 215 210 207 210 210 212 220 213 210 208 207 207 208 210 209 211 215 214 213 212 214 214 211 208 204 202 201 202 200 202 201
220 221 224 196 221 166 213 217 197 203 174 202 198 202 210 202 219 234 229 228 226 240 209 172 180 212 171 237 50 232 243 237 241 242 234 230 237 244 243 244 242 244 247 244 250 251 250 250 241 232 229 231 231 225 217 210 208 208 212 212 214 220 216 208 207 205 207 211 214 213 213 214 213 213 212 214 214 210 208 207 204 205 207 207 207 202
221 241 172 193 198 188 206 205 220 200 210 198 195 230 225 220 184 240 227 246 236 169 177 180 209 176 207 247 233 297 145 183 233 241 243 245 239 225 245 243 240 238 238 234 239 245 247 247 247 235 233 234 236 233 220 217 208 206 214 213 216 219 219 210 205 206 209 213 214 214 213 215 214 215 215 216 215 215 209 206 203 206 208 212 210 202
188 227 153 190 197 208 202 192 208 156 217 161 171 212 213 6 239 257 262 168 356 227 232 145 238 228 298 263 248 243 243 183 213 233 236 233 228 227 234 234 233 234 231 233 236 241 247 249 247 242 243 241 241 237 227 223 210 210 212 214 218 221 220 213 207 210 211 214 214 215 215 214 212 212 210 213 213 210 209 206 205 207 209 208 208 204
200 233 219 187 201 220 208 198 200 195 184 114 214 195 127 68 30 241 253 205 224 230 254 195 223 209 204 267 204 229 240 235 204 204 219 216 211 221 229 237 240 240 243 239 239 241 246 251 252 247 232 237 242 243 243 239 225 217 220 221 221 223 220 216 213 212 213 212 214 215 214 214 214 213 214 217 219 215 211 208 209 208 208 206 203 196
200 239 203 189 199 203 200 201 216 210 203 211 236 134 197 194 237 168 304 230 219 228 200 210 229 224 199 230 222 194 228 227 202 195 214 214 211 222 229 236 242 245 247 244 240 238 244 255 256 254 258 257 251 255 258 254 235 225 226 228 226 226 222 219 216 215 214 213 212 212 213 212 214 215 216 216 218 215 209 208 208 209 211 208 197 192
355 228 203 140 202 156 174 172 216 210 222 231 37 201 76 61 252 216 216 333 298 253 218 228 197 238 206 225 242 235 239 212 212 199 215 225 223 218 229 232 234 238 241 244 247 247 248 254 260 257 250 245 237 235 232 236 229 228 225 223 226 230 231 224 218 211 214 214 215 214 213 214 213 215 216 217 214 214 214 212 210 210 209 208 195 192
197 21 235 142 63 154 208 174 213 203 201 201 214 218 183 221 178 358 292 234 230 258 246 239 220 227 215 208 235 238 246 239 202 217 206 220 231 229 229 231 236 245 253 256 256 247 241 247 258 253 242 244 241 233 231 223 225 224 219 222 220 222 224 223 219 212 215 212 216 215 214 213 211 213 214 216 216 217 219 218 213 213 211 202 197 186
199 178 216 187 178 214 206 192 227 210 207 205 205 222 214 208 220 234 255 197 228 237 234 238 251 284 124 206 235 244 245 248 232 230 220 218 231 239 241 244 248 261 263 260 261 265 269 268 274 286 255 242 243 240 232 231 229 228 222 222 222 224 227 225 222 214 214 212 215 213 214 214 214 212 211 213 215 216 218 218 213 210 207 202 197 187
215 207 224 234 220 223 220 351 307 291 3 292 220 215 200 222 227 231 242 248 231 231 246 260 291 219 343 346 317 273 274 327 355 327 259 245 243 250 257 264 267 266 275 283 277 271 278 299 301 297 296 282 255 246 242 243 239 245 247 246 240 233 233 226 225 217 214 215 214 215 214 213 213 210 209 212 213 216 215 217 214 204 198 201 202 193
130 214 216 235 241 3 91 143 56 119 156 228 235 26 238 209 207 244 247 1 293 135 226 242 238 259 244 258 279 289 46 41 23 342 284 273 271 267 271 275 273 273 274 283 297 327 19 337 313 284 259 252 253 252 251 253 251 243 238 235 232 233 237 232 228 222 218 218 218 215 214 214 213 210 208 209 211 214 212 211 210 198 200 203 201 194
189 193 210 219 225 244 246 220 248 193 215 214 222 179 195 246 275 128 141 160 268 214 240 249 253 201 241 291 263 290 339 321 335 245 255 290 311 316 319 316 313 315 313 308 304 303 308 279 270 270 270 271 276 274 265 257 254 249 249 243 239 242 239 235 227 222 222 219 219 214 214 215 212 212 208 210 210 213 209 208 202 195 197 200 203 198
199 173 188 212 213 209 216 220 223 212 209 210 233 205 190 197 221 227 246 204 251 208 193 225 251 301 327 313 296 283 297 49 198 231 238 231 283 301 308 303 303 302 294 294 292 300 311 310 291 275 271 269 267 275 284 277 262 256 252 250 245 249 249 240 236 230 224 220 219 218 214 215 213 215 214 213 215 214 210 209 205 203 197 201 206 204
191 197 207 214 220 222 223 44 349 44 113 200 190 204 208 206 205 198 230 246 243 293 288 266 278 312 298 292 294 296 328 305 289 302 318 313 299 267 229 266 289 291 290 291 291 288 286 277 274 279 286 276 274 268 271 269 267 256 252 255 250 248 252 253 244 240 234 230 227 228 223 217 216 214 214 212 214 212 207 207 205 202 200 200 206 208
153 214 210 219 231 242 254 120 2 52 101 314 181 215 215 206 210 214 210 237 218 256 261 259 265 242 264 275 278 284 270 265 261 284 296 292 295 308 311 306 299 294 292 288 280 274 269 261 277 289 286 279 265 257 253 247 246 247 246 249 242 235 236 235 240 242 237 234 232 230 229 223 219 215 211 208 206 206 205 209 212 215 211 195 202 210
190 218 209 205 237 241 193 154 173 358 58 201 148 118 141 208 201 213 229 238 237 220 251 264 244 234 247 257 270 272 235 260 273 279 273 273 282 293 293 295 293 288 291 295 298 296 278 261 267 279 277 279 282 275 270 265 262 247 243 240 238 219 225 226 220 223 224 228 233 231 229 228 226 225 223 211 211 212 215 216 211 205 205 198 204 208
179 230 189 195 232 239 230 210 201 255 252 270 259 255 249 227 225 218 226 226 227 232 233 250 247 234 231 252 262 265 238 237 253 259 261 266 267 265 280 285 283 286 286 285 286 290 297 252 265 268 276 286 284 282 282 277 266 259 247 237 223 221 219 201 216 216 217 221 225 229 227 231 224 224 228 225 221 220 216 213 210 207 207 206 204 208
206 206 143 187 233 241 236 235 245 234 244 261 255 252 251 244 241 233 236 233 229 238 234 245 258 263 259 260 265 266 257 223 257 264 275 282 285 283 278 279 286 286 283 280 279 277 282 264 252 270 272 273 271 271 277 277 274 269 258 248 237 223 206 196 219 221 222 224 224 221 221 226 226 216 226 226 221 215 211 210 206 206 208 208 206 207
189 231 107 169 227 248 175 180 223 207 230 244 256 245 240 232 234 231 230 232 223 226 229 233 247 254 252 248 259 273 277 279 275 281 285 287 292 298 287 284 284 287 285 282 280 280 277 281 270 264 279 278 277 280 277 277 268 263 258 248 241 238 210 207 214 217 222 229 225 220 221 221 219 225 229 227 226 220 217 211 205 206 206 206 206 208
186 193 177 195 219 238 149 183 184 173 207 252 241 232 228 230 231 243 240 232 222 217 224 227 239 233 248 260 268 268 265 280 282 281 300 305 307 307 301 290 280 273 274 276 283 289 286 277 279 282 277 278 278 281 273 269 275 261 262 273 282 236 216 228 235 236 233 226 220 220 213 212 223 228 228 227 230 229 227 217 212 210 206 209 206 197
173 196 207 187 220 131 152 124 137 170 244 242 246 191 202 224 221 234 242 238 232 210 228 231 247 258 251 250 253 268 284 294 304 323 313 303 305 294 279 269 265 265 268 274 272 271 274 282 279 266 255 269 281 281 285 282 262 265 286 293 312 245 236 229 236 236 243 237 227 221 214 210 222 229 225 221 222 224 224 220 221 218 218 214 197 203
170 187 205 176 209 172 138 116 257 253 241 276 122 179 196 209 215 222 236 240 257 247 241 255 259 259 261 268 277 285 292 296 294 279 319 302 283 279 281 282 280 276 272 271 270 262 255 257 260 256 263 271 283 289 284 268 242 264 274 256 258 238 236 228 237 237 236 235 228 220 220 218 218 231 226 217 211 211 220 220 226 220 212 201 201 201
176 184 176 183 206 149 163 213 230 229 301 312 218 151 227 271 243 247 258 275 74 245 243 243 249 258 273 286 299 309 311 307 306 318 315 339 351 346 336 322 308 294 283 282 281 276 264 251 259 293 313 322 319 305 285 280 296 292 277 231 246 246 236 235 233 240 234 236 229 220 218 215 220 232 228 218 212 214 221 221 220 218 206 202 206 208
178 184 189 219 164 216 200 217 235 324 316 283 249 167 172 195 177 185 227 187 305 29 12 291 283 342 356 342 324 306 299 292 246 70 30 7 353 345 340 329 327 321 315 310 305 296 301 317 323 327 328 321 312 305 297 297 303 285 280 249 234 239 247 238 241 237 233 237 230 222 216 214 215 220 224 205 208 219 221 220 221 221 195 208 212 207
193 186 185 205 207 191 186 222 237 246 252 279 130 291 62 353 198 189 214 150 141 8 20 58 72 17 356 357 356 349 237 104 54 17 7 358 348 342 336 334 333 329 330 328 328 324 323 326 329 326 322 312 303 291 286 292 295 279 267 255 234 231 246 244 249 238 228 231 220 215 207 206 208 212 210 207 216 220 220 219 218 212 189 206 206 217
50 67 146 202 185 165 209 224 226 226 239 42 23 81 61 57 106 91 106 226 172 210 154 92 78 45 29 24 13 21 51 63 40 7 350 345 340 338 335 333 333 332 329 332 333 330 328 328 321 307 300 301 306 313 316 310 297 284 270 263 255 232 253 249 253 242 231 234 214 206 205 210 211 214 210 218 221 218 219 210 208 196 180 206 208 216
142 169 166 190 200 197 196 214 235 216 248 33 325 47 206 28 123 139 249 233 150 164 126 102 79 50 34 24 32 54 50 52 7 343 335 326 322 321 328 331 332 331 327 329 328 328 313 310 325 334 337 334 327 325 321 319 301 277 278 279 275 251 246 247 248 288 273 247 222 213 205 200 204 212 215 222 222 221 226 219 206 197 192 201 203 202
171 189 202 210 196 198 205 239 273 274 254 249 269 203 144 153 56 216 238 137 182 151 133 108 90 67 40 43 32 55 49 38 314 306 313 315 328 334 337 333 321 313 317 327 327 324 326 331 333 332 329 329 329 328 323 318 302 282 267 272 273 258 251 261 329 304 274 249 228 222 220 209 206 213 218 220 219 215 220 217 215 202 191 193 195 198
194 174 198 207 210 205 209 230 242 276 261 216 223 156 154 141 208 232 85 134 160 165 157 142 133 138 109 76 60 35 338 323 304 301 323 336 333 328 329 332 333 322 296 274 298 321 332 329 331 333 340 339 333 327 325 324 307 287 287 277 264 257 263 311 319 289 269 254 239 231 226 221 211 204 208 206 209 210 219 219 215 209 196 190 189 194
178 170 196 192 188 195 207 228 269 260 113 230 176 84 186 215 305 100 138 188 180 144 143 137 107 132 104 105 91 17 324 328 328 324 330 327 338 339 337 339 338 335 333 336 336 342 341 328 332 333 329 329 334 335 328 330 312 304 303 286 273 285 299 306 295 273 260 249 241 232 229 225 208 200 188 195 199 207 216 208 210 214 203 192 189 193
170 181 195 202 181 174 188 201 217 216 63 243 191 208 176 194 116 156 132 166 194 148 145 124 100 133 121 83 60 8 339 334 330 330 326 328 334 333 334 337 335 333 332 324 319 323 326 319 313 320 327 329 337 335 332 332 320 316 311 301 313 320 309 300 286 273 260 247 239 243 233 221 215 209 194 187 188 206 214 204 200 202 212 212 197 195
199 202 144 175 182 190 203 218 189 71 151 106 46 45 65 97 135 163 130 124 165 176 157 151 160 185 179 157 156 166 261 285 291 296 314 317 325 330 331 328 329 326 327 326 321 330 328 322 319 320 329 334 340 344 338 333 318 311 308 309 328 322 320 314 306 284 268 257 245 236 233 214 211 205 205 193 184 195 206 212 196 198 202 205 219 211
342 205 95 212 218 239 289 270 345 267 223 265 193 339 61 109 95 133 134 131 191 156 177 172 175 187 202 204 190 196 211 214 230 269 283 296 308 309 311 318 323 326 325 325 325 332 323 319 321 326 334 332 343 339 345 338 320 309 308 315 319 318 315 310 302 285 265 257 248 242 219 213 214 207 203 200 200 200 199 205 208 208 192 197 208 214
189 131 170 213 107 146 249 220 206 226 231 177 136 73 25 316 143 151 161 158 153 166 186 253 197 203 204 208 230 256 246 228 239 248 249 256 271 288 299 307 311 315 320 319 316 320 325 331 328 333 337 332 334 341 335 330 319 295 306 313 312 311 307 300 289 282 278 269 263 236 207 219 218 204 204 201 204 206 203 203 203 207 211 206 203 207
239 166 203 223 213 206 231 114 332 254 280 111 183 178 233 212 201 194 126 114 135 174 192 207 207 246 225 234 238 246 256 250 243 262 265 258 259 267 278 291 302 312 312 305 303 313 314 319 324 324 330 326 327 334 328 321 315 311 314 312 314 303 289 274 267 270 275 275 272 266 224 226 223 218 219 211 201 204 206 214 209 207 212 208 200 202
97 138 204 189 213 246 287 272 231 270 270 242 204 220 230 207 182 165 120 101 138 174 215 229 209 224 213 235 246 246 256 261 253 261 267 271 272 276 277 285 297 299 302 308 308 314 313 313 317 318 318 313 320 326 321 316 313 320 326 324 319 318 312 310 306 293 282 276 269 264 250 246 240 225 224 213 218 227 217 217 224 226 232 222 205 208
140 196 159 108 218 237 234 244 134 234 256 106 127 146 167 186 153 136 137 191 214 220 225 219 229 231 234 245 250 247 244 259 273 270 262 257 259 265 277 287 297 301 298 294 299 302 304 306 308 313 314 309 316 317 313 310 308 311 323 325 322 323 318 316 304 289 285 287 285 278 249 233 233 236 227 214 213 214 227 231 235 235 230 229 203 215
198 178 159 207 204 241 104 119 93 54 55 166 261 94 118 131 129 156 195 217 224 223 223 232 250 250 238 241 237 239 240 247 259 274 271 261 258 257 263 281 290 292 293 295 303 303 304 304 307 305 307 310 320 312 303 298 305 304 300 323 324 330 323 322 313 302 295 295 299 286 273 252 235 229 233 236 230 226 230 236 231 230 233 234 215 207